Weather History for Lyndonville, VT

Change the Weather History Date:

Monday, December 31, 2012

  Actual Average (K1V4) Record (K1V4)
Temperature  
Mean Temperature 16 °F 18 °F  
Max Temperature 23 °F 28 °F 54 °F (1895)
Min Temperature 9 °F 9 °F -40 °F (1917)
Degree Days  
Heating Degree Days 49 47  
Month to date heating degree days 1297  
Since 1 July heating degree days 2953  
Moisture  
Dew Point 12 °F    
Average Humidity 80    
Maximum Humidity 88    
Minimum Humidity 66    
Precipitation  
Precipitation 0.00 in 0.09 in 0.69 in (1895)
Month to date precipitation 3.08  
Year to date precipitation 39.50  
Sea Level Pressure  
Sea Level Pressure 29.85 in    
Wind  
Wind Speed 4 mph (SSW)    
Max Wind Speed 10 mph    
Max Gust Speed 17 mph    
Visibility 7 miles    
Events Snow    
T = Trace of Precipitation, MM = Missing Value Source: NWS Daily Summary

Daily Weather History Graph

Daily Weather History Graph

Search for Another Location

Airport:

Trip Planner

Search our weather history database for the weather conditions in past years. The results will help you decide how hot, cold, wet, or windy it might be!

Date:

Astronomy

Dec. 31, 2012 Rise Set
Actual Time 7:24 AM EST 4:18 PM EST
Civil Twilight 6:51 AM EST 4:51 PM EST
Nautical Twilight 6:14 AM EST 5:28 PM EST
Astronomical Twilight 5:39 AM EST 6:03 PM EST
Moon 7:54 PM EST (12/31) 8:56 AM EST (12/31)
Length of Visible Light 10h 00m
Length of Day
8h 53m
Waning Gibbous, 90% of the Moon is Illuminated
Dec 31
Waning Gibbous
Jan 4
Last Quarter
Jan 11
New
Jan 18
First Quarter
Jan 26
Full

Hourly Weather History & Observations

Time (EST) Temp. Windchill Dew Point Humidity Pressure Visibility Wind Dir Wind Speed Gust Speed Precip Events Conditions
12:15 AM 9.3 °F -1.7 °F 1.6 °F 71% 29.96 in 10.0 mi SW 6.9 mph - N/A   Mostly Cloudy
12:35 AM 9.7 °F 1.4 °F 1.8 °F 70% 29.96 in 10.0 mi SW 4.6 mph - N/A   Overcast
12:55 AM 11.3 °F -1.3 °F 2.3 °F 67% 29.96 in 10.0 mi SW 9.2 mph 17.3 mph N/A   Overcast
1:15 AM 12.2 °F -1.0 °F 3.0 °F 67% 29.96 in 10.0 mi SW 10.4 mph - N/A   Overcast
1:35 AM 10.4 °F 0.8 °F 2.3 °F 70% 29.96 in 10.0 mi SW 5.8 mph - N/A   Overcast
1:55 AM 13.3 °F 2.0 °F 4.3 °F 67% 29.97 in 10.0 mi SW 8.1 mph - N/A   Overcast
2:15 AM 14.4 °F 2.4 °F 5.0 °F 66% 29.97 in 10.0 mi SW 9.2 mph - N/A   Overcast
2:35 AM 13.3 °F - 4.6 °F 68% 29.97 in 10.0 mi Calm Calm - N/A   Overcast
2:55 AM 13.5 °F 5.8 °F 5.0 °F 69% 29.97 in 10.0 mi SW 4.6 mph - N/A   Overcast
3:15 AM 14.0 °F 6.5 °F 5.4 °F 69% 29.97 in 10.0 mi SW 4.6 mph - N/A   Overcast
3:35 AM 13.5 °F 3.3 °F 5.7 °F 71% 29.96 in 10.0 mi SW 6.9 mph - N/A   Overcast
3:55 AM 14.4 °F 5.5 °F 6.4 °F 71% 29.96 in 10.0 mi SW 5.8 mph - N/A   Overcast
4:15 AM 14.5 °F 7.1 °F 6.6 °F 71% 29.96 in 10.0 mi SW 4.6 mph - N/A   Overcast
4:35 AM 14.2 °F 6.7 °F 7.0 °F 73% 29.95 in 10.0 mi SW 4.6 mph - N/A   Overcast
4:55 AM 13.6 °F - 7.3 °F 76% 29.95 in 10.0 mi Calm Calm - N/A   Overcast
5:15 AM 12.2 °F - 6.8 °F 79% 29.94 in 4.0 mi Calm Calm - N/A Snow Light Snow
5:35 AM 12.7 °F 5.0 °F 7.5 °F 80% 29.94 in 2.5 mi West 4.6 mph - N/A Snow Light Snow
5:55 AM 13.1 °F 7.1 °F 8.1 °F 80% 29.94 in 2.0 mi WSW 3.5 mph - N/A Snow Light Snow
6:15 AM 13.1 °F - 8.2 °F 81% 29.95 in 1.8 mi Calm Calm - N/A Snow Light Snow
6:35 AM 13.1 °F - 8.6 °F 82% 29.94 in 1.8 mi Calm Calm - N/A Snow Light Snow
6:55 AM 12.6 °F 6.5 °F 8.2 °F 83% 29.94 in 2.5 mi WSW 3.5 mph - N/A Snow Light Snow
7:15 AM 12.7 °F - 8.4 °F 83% 29.94 in 3.0 mi Calm Calm - N/A Snow Light Snow
7:55 AM 13.6 °F - 9.1 °F 82% 29.94 in 5.0 mi Calm Calm - N/A Snow Light Snow
8:15 AM 13.8 °F - 9.3 °F 82% 29.94 in 3.0 mi Calm Calm - N/A Snow Light Snow
8:35 AM 13.6 °F - 9.3 °F 83% 29.94 in 2.5 mi Calm Calm - N/A Snow Light Snow
8:55 AM 14.0 °F - 9.5 °F 82% 29.93 in 1.8 mi Calm Calm - N/A Snow Light Snow
9:15 AM 14.5 °F - 10.0 °F 82% 29.92 in 3.0 mi Calm Calm - N/A Snow Light Snow
9:35 AM 14.9 °F - 10.4 °F 82% 29.93 in 3.0 mi Calm Calm - N/A Snow Light Snow
9:55 AM 14.9 °F - 10.2 °F 82% 29.93 in 5.0 mi Calm Calm - N/A Snow Light Snow
10:15 AM 15.4 °F - 10.4 °F 80% 29.92 in 4.0 mi Calm Calm - N/A Snow Light Snow
10:35 AM 15.8 °F - 10.9 °F 81% 29.92 in 4.0 mi Calm Calm - N/A Snow Light Snow
10:55 AM 16.0 °F 10.4 °F 11.3 °F 82% 29.91 in 5.0 mi South 3.5 mph - N/A Snow Light Snow
11:15 AM 16.5 °F - 11.3 °F 80% 29.91 in 10.0 mi Calm Calm - N/A   Overcast
11:35 AM 17.2 °F 11.9 °F 12.0 °F 80% 29.90 in 10.0 mi SSW 3.5 mph - N/A Snow Light Snow
11:55 AM 17.4 °F - 12.2 °F 80% 29.88 in 10.0 mi Calm Calm - N/A Snow Light Snow
12:15 PM 18.0 °F - 12.4 °F 79% 29.87 in 7.0 mi Calm Calm - N/A Snow Light Snow
12:35 PM 18.0 °F 12.7 °F 12.7 °F 80% 29.86 in 7.0 mi South 3.5 mph - N/A Snow Light Snow
12:55 PM 18.1 °F - 13.1 °F 81% 29.85 in 4.0 mi Calm Calm - N/A Snow Light Snow
1:15 PM 18.5 °F - 14.0 °F 83% 29.84 in 2.5 mi Calm Calm - N/A Snow Light Snow
1:35 PM 18.9 °F 13.7 °F 14.2 °F 82% 29.82 in 3.0 mi South 3.5 mph - N/A Snow Light Snow
1:55 PM 19.2 °F 14.1 °F 14.7 °F 83% 29.82 in 7.0 mi SSW 3.5 mph - N/A   Overcast
2:15 PM 19.4 °F 14.3 °F 14.9 °F 83% 29.82 in 7.0 mi SSW 3.5 mph - N/A   Overcast
2:35 PM 19.9 °F 13.4 °F 15.1 °F 81% 29.82 in 10.0 mi South 4.6 mph - N/A   Overcast
2:55 PM 19.9 °F - 14.9 °F 81% 29.81 in 10.0 mi Calm Calm - N/A   Overcast
3:15 PM 19.9 °F - 15.1 °F 81% 29.80 in 10.0 mi Calm Calm - N/A   Overcast
3:35 PM 20.1 °F 15.2 °F 15.4 °F 82% 29.80 in 7.0 mi South 3.5 mph - N/A Snow Light Snow
3:55 PM 20.1 °F - 15.4 °F 82% 29.80 in 10.0 mi Calm Calm - N/A   Overcast
4:15 PM 20.1 °F - 15.6 °F 83% 29.79 in 10.0 mi Calm Calm - N/A   Overcast
4:35 PM 20.3 °F - 15.6 °F 82% 29.79 in 10.0 mi Calm Calm - N/A   Overcast
4:55 PM 20.1 °F - 15.8 °F 83% 29.78 in 10.0 mi Calm Calm - N/A   Overcast
5:15 PM 20.3 °F - 15.8 °F 83% 29.77 in 10.0 mi Calm Calm - N/A   Overcast
5:35 PM 20.3 °F - 16.2 °F 84% 29.76 in 10.0 mi Calm Calm - N/A   Overcast
5:55 PM 20.3 °F - 16.2 °F 84% 29.76 in 10.0 mi Calm Calm - N/A   Overcast
6:15 PM 20.3 °F - 16.2 °F 84% 29.76 in 10.0 mi Calm Calm - N/A   Overcast
6:35 PM 20.3 °F - 16.2 °F 84% 29.75 in 10.0 mi Calm Calm - N/A   Overcast
6:55 PM 20.3 °F - 16.2 °F 84% 29.75 in 10.0 mi Calm Calm - N/A   Overcast
7:15 PM 20.3 °F - 16.2 °F 84% 29.74 in 10.0 mi Calm Calm - N/A   Overcast
7:35 PM 20.7 °F 15.8 °F 16.3 °F 83% 29.73 in 10.0 mi ESE 3.5 mph - N/A   Overcast
7:55 PM 20.7 °F - 16.5 °F 84% 29.72 in 7.0 mi Calm Calm - N/A Snow Light Snow
8:15 PM 21.0 °F 14.6 °F 17.1 °F 85% 29.70 in 5.0 mi South 4.6 mph - N/A Snow Light Snow
8:35 PM 21.6 °F 16.8 °F 17.6 °F 85% 29.69 in 10.0 mi SE 3.5 mph - N/A   Overcast
8:55 PM 21.9 °F 17.2 °F 18.0 °F 85% 29.69 in 10.0 mi SE 3.5 mph - N/A   Overcast
9:35 PM 22.1 °F - 18.3 °F 85% 29.67 in 7.0 mi Calm Calm - N/A   Overcast
10:35 PM 22.8 °F 18.2 °F 19.4 °F 87% 29.65 in 4.0 mi South 3.5 mph - N/A Snow Light Snow
10:55 PM 23.2 °F - 20.1 °F 88% 29.64 in 3.0 mi Calm Calm - N/A Snow Light Snow
11:15 PM 23.9 °F - 20.7 °F 87% 29.63 in 4.0 mi Calm Calm - N/A Snow Light Snow
11:35 PM 23.7 °F - 20.5 °F 87% 29.62 in 5.0 mi Calm Calm - N/A Snow Light Snow
11:55 PM 23.5 °F - 20.3 °F 87% 29.61 in 5.0 mi Calm Calm - N/A Snow Light Snow